When you browse on this site, cookies collect data to enhance your experience and personalize the content and advertising you see.
Visit our Privacy Policy to learn more. By continuing to use the site, you agree to this use of cookies and data.
  • In Lithuania
  • List of Countries
  • For 7 days
  • Water Temperature
  • Weather Map
  • Weather Widgets
  • user-avatar
    Login

    Hourly Weather Baraki Barak

    Today, 25 May, Monday

    Time Temperature Precipitation Wind Pressure Humidity
    00:00 +22°C° 0 mm 1 mps 601 mmHg 34%
    01:00 +21°C° 0 mm 1 mps 600 mmHg 35%
    02:00 +21°C° 0 mm 1 mps 600 mmHg 36%
    03:00 +20°C° 0 mm 1 mps 600 mmHg 38%
    04:00 +20°C° 0 mm 1 mps 599 mmHg 39%
    05:00 +18°C° 0 mm 2 mps 599 mmHg 36%
    06:00 +19°C° 0 mm 2 mps 600 mmHg 34%
    07:00 +22°C° 0 mm 1 mps 601 mmHg 31%
    08:00 +23°C° 0 mm 1 mps 601 mmHg 29%
    09:00 +24°C° 0 mm 1 mps 602 mmHg 26%
    10:00 +25°C° 0 mm 2 mps 602 mmHg 22%
    11:00 +27°C° 0 mm 2 mps 603 mmHg 19%
    12:00 +28°C° 0 mm 3 mps 603 mmHg 17%
    13:00 +28°C° 0 mm 3 mps 603 mmHg 15%
    14:00 +29°C° 0 mm 3 mps 603 mmHg 13%
    15:00 +29°C° 0 mm 4 mps 602 mmHg 13%
    16:00 +29°C° 0 mm 4 mps 602 mmHg 13%
    17:00 +29°C° 0 mm 5 mps 602 mmHg 13%
    18:00 +28°C° 0 mm 4 mps 601 mmHg 17%
    19:00 +26°C° 0 mm 4 mps 601 mmHg 22%
    20:00 +24°C° 0 mm 3 mps 601 mmHg 26%
    21:00 +24°C° 0 mm 3 mps 601 mmHg 28%
    22:00 +23°C° 0 mm 2 mps 600 mmHg 30%
    23:00 +21°C° 0 mm 2 mps 600 mmHg 32%

    Tomorrow, 26 May, Tuesday

    Time Temperature Precipitation Wind Pressure Humidity
    00:00 +21°C° 0 mm 1 mps 600 mmHg 35%
    01:00 +21°C° 0 mm 1 mps 600 mmHg 37%
    02:00 +20°C° 0 mm 1 mps 599 mmHg 40%
    03:00 +20°C° 0 mm 1 mps 599 mmHg 41%
    04:00 +17°C° 0 mm 0 mps 598 mmHg 42%
    05:00 +16°C° 0 mm 0 mps 598 mmHg 43%
    06:00 +20°C° 0 mm 1 mps 599 mmHg 39%
    07:00 +21°C° 0 mm 1 mps 599 mmHg 35%
    08:00 +22°C° 0 mm 1 mps 600 mmHg 31%
    09:00 +23°C° 0 mm 1 mps 600 mmHg 28%
    10:00 +24°C° 0 mm 1 mps 600 mmHg 25%
    11:00 +26°C° 0 mm 1 mps 601 mmHg 22%
    12:00 +27°C° 0 mm 2 mps 601 mmHg 19%
    13:00 +28°C° 0 mm 2 mps 601 mmHg 17%
    14:00 +29°C° 0 mm 2 mps 601 mmHg 14%
    15:00 +29°C° 0 mm 3 mps 601 mmHg 14%
    16:00 +29°C° 0 mm 3 mps 601 mmHg 14%
    17:00 +29°C° 0 mm 4 mps 601 mmHg 13%
    18:00 +28°C° 0 mm 4 mps 600 mmHg 16%
    19:00 +27°C° 0 mm 4 mps 600 mmHg 19%
    20:00 +25°C° 0 mm 4 mps 600 mmHg 22%
    21:00 +24°C° 0 mm 3 mps 600 mmHg 24%
    22:00 +23°C° 0 mm 2 mps 600 mmHg 26%
    23:00 +23°C° 0 mm 2 mps 600 mmHg 28%

    Day after tomorrow, 27 May, Wednesday

    Time Temperature Precipitation Wind Pressure Humidity
    00:00 +21°C° 0 mm 2 mps 599 mmHg 29%
    01:00 +21°C° 0 mm 1 mps 599 mmHg 31%
    02:00 +21°C° 0 mm 1 mps 598 mmHg 32%
    03:00 +20°C° 0 mm 1 mps 598 mmHg 34%
    04:00 +19°C° 0 mm 1 mps 597 mmHg 35%
    05:00 +19°C° 0 mm 1 mps 597 mmHg 36%
    06:00 +20°C° 0 mm 1 mps 598 mmHg 33%
    07:00 +21°C° 0 mm 1 mps 598 mmHg 29%
    08:00 +21°C° 0 mm 2 mps 599 mmHg 26%
    09:00 +23°C° 0 mm 2 mps 599 mmHg 24%
    10:00 +24°C° 0 mm 2 mps 599 mmHg 22%
    11:00 +25°C° 0 mm 2 mps 599 mmHg 19%
    12:00 +26°C° 0 mm 2 mps 600 mmHg 18%
    13:00 +27°C° 0 mm 3 mps 600 mmHg 17%
    14:00 +28°C° 0 mm 3 mps 600 mmHg 15%
    15:00 +28°C° 0 mm 3 mps 599 mmHg 15%
    16:00 +28°C° 0 mm 3 mps 599 mmHg 16%
    17:00 +28°C° 0 mm 4 mps 599 mmHg 16%
    18:00 +27°C° 0 mm 4 mps 599 mmHg 18%
    19:00 +26°C° 0 mm 5 mps 599 mmHg 20%
    20:00 +25°C° 0 mm 5 mps 598 mmHg 23%
    21:00 +23°C° 0 mm 5 mps 598 mmHg 25%
    22:00 +22°C° 0 mm 4 mps 598 mmHg 27%
    23:00 +22°C° 0 mm 3 mps 598 mmHg 28%

    28 May, Thursday

    Time Temperature Precipitation Wind Pressure Humidity
    00:00 +21°C° 0 mm 2 mps 598 mmHg 31%
    01:00 +20°C° 0 mm 2 mps 597 mmHg 34%
    02:00 +20°C° 0 mm 1 mps 597 mmHg 37%
    03:00 +20°C° 0 mm 1 mps 597 mmHg 38%
    04:00 +19°C° 0 mm 1 mps 596 mmHg 40%
    05:00 +18°C° 0 mm 2 mps 596 mmHg 41%
    06:00 +19°C° 0 mm 2 mps 597 mmHg 39%
    07:00 +20°C° 0 mm 2 mps 597 mmHg 37%
    08:00 +20°C° 0 mm 2 mps 597 mmHg 35%
    09:00 +23°C° 0 mm 2 mps 598 mmHg 31%
    10:00 +24°C° 0 mm 3 mps 598 mmHg 28%
    11:00 +25°C° 0 mm 3 mps 598 mmHg 25%
    12:00 +26°C° 0 mm 3 mps 598 mmHg 24%
    13:00 +27°C° 0 mm 3 mps 598 mmHg 22%
    14:00 +27°C° 0 mm 3 mps 598 mmHg 21%
    15:00 +26°C° 0.1 mm 4 mps 598 mmHg 25%
    16:00 +25°C° 0.1 mm 5 mps 598 mmHg 29%
    17:00 +23°C° 0.1 mm 6 mps 597 mmHg 33%
    18:00 +22°C° 0 mm 5 mps 597 mmHg 36%
    19:00 +21°C° 0 mm 5 mps 597 mmHg 40%
    20:00 +20°C° 0 mm 5 mps 597 mmHg 43%
    21:00 +20°C° 0 mm 4 mps 597 mmHg 45%
    22:00 +19°C° 0 mm 3 mps 598 mmHg 48%
    23:00 +19°C° 0 mm 3 mps 598 mmHg 50%

    29 May, Friday

    Time Temperature Precipitation Wind Pressure Humidity
    00:00 +18°C° 0 mm 2 mps 597 mmHg 52%
    01:00 +18°C° 0 mm 2 mps 597 mmHg 53%
    02:00 +17°C° 0 mm 2 mps 597 mmHg 55%
    03:00 +18°C° 0 mm 1 mps 596 mmHg 57%
    04:00 +18°C° 0 mm 1 mps 596 mmHg 59%
    05:00 +16°C° 0 mm 1 mps 596 mmHg 60%
    06:00 +18°C° 0 mm 1 mps 596 mmHg 56%
    07:00 +19°C° 0 mm 1 mps 597 mmHg 52%
    08:00 +20°C° 0 mm 1 mps 597 mmHg 48%
    09:00 +21°C° 0 mm 1 mps 598 mmHg 43%
    10:00 +23°C° 0 mm 1 mps 598 mmHg 39%
    11:00 +24°C° 0 mm 2 mps 599 mmHg 34%
    12:00 +25°C° 0 mm 2 mps 599 mmHg 31%
    13:00 +26°C° 0 mm 3 mps 599 mmHg 28%
    14:00 +27°C° 0 mm 3 mps 600 mmHg 25%
    15:00 +26°C° 0.2 mm 4 mps 599 mmHg 29%
    16:00 +25°C° 0.2 mm 5 mps 599 mmHg 34%
    17:00 +22°C° 0.2 mm 5 mps 599 mmHg 38%
    18:00 +21°C° 0.1 mm 5 mps 599 mmHg 42%
    19:00 +20°C° 0.1 mm 5 mps 599 mmHg 46%
    20:00 +19°C° 0.1 mm 5 mps 599 mmHg 50%
    21:00 +19°C° 0 mm 4 mps 598 mmHg 52%
    22:00 +18°C° 0 mm 2 mps 598 mmHg 54%
    23:00 +19°C° 0 mm 1 mps 598 mmHg 56%

    30 May, Saturday

    Time Temperature Precipitation Wind Pressure Humidity
    00:00 +18°C° 0 mm 1 mps 598 mmHg 57%
    01:00 +18°C° 0 mm 1 mps 597 mmHg 57%
    02:00 +18°C° 0 mm 1 mps 597 mmHg 58%
    03:00 +18°C° 0 mm 1 mps 597 mmHg 59%
    04:00 +16°C° 0 mm 1 mps 597 mmHg 60%
    05:00 +16°C° 0 mm 1 mps 597 mmHg 62%
    06:00 +18°C° 0 mm 1 mps 597 mmHg 56%
    07:00 +19°C° 0 mm 1 mps 598 mmHg 51%
    08:00 +18°C° 0 mm 0 mps 599 mmHg 46%
    09:00 +22°C° 0 mm 1 mps 599 mmHg 42%
    10:00 +23°C° 0 mm 1 mps 600 mmHg 38%
    11:00 +24°C° 0 mm 1 mps 600 mmHg 33%
    12:00 +25°C° 0 mm 1 mps 600 mmHg 31%
    13:00 +26°C° 0 mm 2 mps 600 mmHg 29%
    14:00 +27°C° 0 mm 2 mps 600 mmHg 27%
    15:00 +27°C° 0 mm 3 mps 600 mmHg 27%
    16:00 +27°C° 0 mm 3 mps 600 mmHg 27%
    17:00 +27°C° 0 mm 4 mps 600 mmHg 28%
    18:00 +26°C° 0.1 mm 4 mps 600 mmHg 31%
    19:00 +25°C° 0.1 mm 4 mps 599 mmHg 35%
    20:00 +23°C° 0.1 mm 4 mps 599 mmHg 38%
    21:00 +22°C° 0 mm 3 mps 599 mmHg 41%
    22:00 +21°C° 0 mm 2 mps 599 mmHg 45%
    23:00 +21°C° 0 mm 1 mps 599 mmHg 48%
    Show more